DW9324 Weather Reports


time (UTC)temp
C
wind
direction
speed
KPH
gust
KPH
rain 1hr
cm
rain 24hr
cm
rain mn
cm
humidity
%
barometer
mb
20260906114507 22 227 0.0 0.0 0.00 0.53 0.00 97 1011.3
20260906113004 22 227 0.0 0.0 0.00 0.53 0.00 96 1011.0
20260906111502 22 227 0.0 0.0 0.00 0.53 0.00 96 1010.9
20260906110003 22 227 0.0 1.6 0.00 0.53 0.00 97 1010.7
20260906104600 22 227 0.0 0.0 0.00 0.53 0.00 97 1010.6
20260906103059 22 227 0.0 1.6 0.00 0.53 0.00 97 1010.4
20260906101556 22 227 0.0 0.0 0.00 0.53 0.00 97 1010.3
20260906100054 22 227 0.0 0.0 0.00 0.53 0.00 98 1010.1
20260906094554 22 227 0.0 0.0 0.00 0.53 0.00 98 1009.9
20260906093107 22 227 0.0 0.0 0.00 0.53 0.00 98 1009.7
20260906091556 22 227 0.0 0.0 0.00 0.53 0.00 98 1009.5
20260906090052 22 227 0.0 0.0 0.00 0.53 0.00 98 1009.3
20260906084551 22 227 0.0 0.0 0.00 0.53 0.00 98 1009.1
20260906083051 22 227 0.0 0.0 0.00 0.53 0.00 98 1009.2
20260906081554 22 227 0.0 0.0 0.00 0.53 0.00 98 1009.2
20260906080049 22 227 0.0 0.0 0.00 0.53 0.00 98 1009.0
20260906074550 22 227 0.0 0.0 0.00 0.53 0.00 98 1008.9
20260906073048 22 227 0.0 0.0 0.00 0.53 0.00 98 1008.7
20260906071557 22 227 0.0 0.0 0.00 0.53 0.00 98 1008.5
20260906070045 22 227 0.0 0.0 0.00 0.53 0.00 98 1008.7
20260906064544 22 227 0.0 0.0 0.00 0.53 0.00 98 1008.9
20260906063043 22 227 0.0 0.0 0.00 0.53 0.00 98 1008.9
20260906061542 22 227 0.0 0.0 0.00 0.53 0.00 98 1008.9
20260906060041 22 227 0.0 0.0 0.00 0.53 0.00 98 1009.0
20260906054538 22 227 0.0 0.0 0.00 0.53 0.00 98 1009.2
20260906053038 22 227 0.0 0.0 0.00 0.53 0.00 98 1009.4
20260906051542 22 227 0.0 0.0 0.00 0.53 0.00 98 1009.6
20260906050056 23 227 0.0 0.0 0.00 0.53 0.00 98 1009.6
20260906044531 23 227 0.0 0.0 0.00 0.53 0.00 98 1009.7
20260906043031 23 227 0.0 0.0 0.00 0.53 0.00 98 1009.9
20260906041530 23 227 0.0 0.0 0.00 0.53 0.00 98 1009.9
20260906040028 23 227 0.0 0.0 0.00 0.53 0.53 98 1010.0
20260906034538 23 227 0.0 0.0 0.00 0.53 0.53 97 1009.8
20260906033029 23 227 0.0 0.0 0.00 0.53 0.53 97 1009.9
20260906031528 23 227 0.0 0.0 0.00 0.53 0.53 97 1010.0
20260906030027 23 227 0.0 0.0 0.00 0.53 0.53 97 1009.9
20260906024525 23 227 0.0 0.0 0.00 0.53 0.53 97 1009.8
20260906023027 23 227 0.0 0.0 0.00 0.53 0.53 97 1009.8
20260906021525 23 227 0.0 0.0 0.00 0.53 0.53 97 1009.6
20260906020027 23 227 0.0 0.0 0.00 0.53 0.53 97 1009.7
20260906014529 23 227 0.0 0.0 0.00 0.53 0.53 97 1009.6
20260906013024 23 227 0.0 0.0 0.00 0.53 0.53 97 1009.7
20260906011523 23 227 0.0 0.0 0.00 0.53 0.53 97 1009.4
20260906010022 23 227 0.0 0.0 0.00 0.53 0.53 97 1009.5
20260906004523 23 227 0.0 0.0 0.00 0.53 0.53 97 1009.2
20260906003021 23 227 0.0 0.0 0.00 0.53 0.53 97 1009.2
20260906001523 23 227 0.0 0.0 0.00 0.53 0.53 97 1009.0
20260906000024 23 227 0.0 0.0 0.00 0.53 0.53 96 1008.8
20260905234520 24 227 0.0 0.0 0.00 0.53 0.53 97 1008.5
20260905233025 24 227 0.0 0.0 0.00 0.53 0.53 96 1008.2
20260905231519 24 227 0.0 0.0 0.00 0.53 0.53 96 1008.1
20260905230018 24 227 0.0 0.0 0.00 0.53 0.53 96 1007.8
20260905224517 24 227 0.0 0.0 0.00 0.53 0.53 96 1007.7
20260905223017 23 227 0.0 0.0 0.00 0.53 0.53 96 1008.0
20260905221516 23 227 0.0 1.6 0.00 0.53 0.53 96 1008.1
20260905220016 23 227 0.0 0.0 0.00 0.53 0.53 96 1008.2
20260905214515 23 227 0.0 0.0 0.00 0.53 0.53 96 1008.0
20260905213018 23 227 0.0 0.0 0.00 0.53 0.53 96 1007.8
20260905211514 23 163 0.0 0.0 0.00 0.53 0.53 96 1007.6
20260905210014 23 164 0.0 0.0 0.00 0.53 0.53 96 1007.6
20260905204513 23 164 0.0 0.0 0.28 0.53 0.53 95 1007.5
20260905203014 23 164 0.0 0.0 0.53 0.53 0.53 94 1007.5
20260905201512 23 161 0.0 0.0 0.53 0.53 0.53 93 1007.3
20260905200011 24 111 0.0 1.6 0.53 0.53 0.53 90 1008.1
20260905194510 27 232 0.0 3.2 0.20 0.20 0.20 78 1009.1
20260905193016 27 38 3.2 6.4 0.00 0.00 0.00 71 1008.5
20260905191509 29 35 4.8 22.5 0.00 0.00 0.00 67 1007.9
20260905190108 34 251 0.0 0.0 0.00 0.00 0.00 57 1007.4
20260905184514 35 242 0.0 1.6 0.00 0.00 0.00 56 1007.1
20260905183005 36 103 0.0 3.2 0.00 0.00 0.00 51 1007.3
20260905181510 36 219 0.0 6.4 0.00 0.00 0.00 53 1007.5
20260905180101 37 89 0.0 1.6 0.00 0.00 0.00 53 1007.8
20260905174559 36 345 0.0 3.2 0.00 0.00 0.00 55 1008.2
20260905173107 36 50 0.0 3.2 0.00 0.00 0.00 55 1008.7
20260905171551 35 150 0.0 4.8 0.00 0.00 0.00 57 1008.9
20260905170050 35 54 0.0 4.8 0.00 0.00 0.00 58 1009.2
20260905164548 35 51 0.0 3.2 0.00 0.00 0.00 56 1009.4
20260905163052 35 106 0.0 4.8 0.00 0.00 0.00 57 1009.5
20260905161545 35 186 0.0 0.0 0.00 0.00 0.00 57 1009.6
20260905160050 33 60 0.0 3.2 0.00 0.00 0.00 60 1009.9
20260905154545 33 140 0.0 3.2 0.00 0.00 0.00 62 1010.1
20260905153035 32 80 0.0 3.2 0.00 0.00 0.00 65 1010.3
20260905151532 31 96 0.0 1.6 0.00 0.00 0.00 68 1010.5
20260905150030 31 160 0.0 1.6 0.00 0.00 0.00 71 1010.4
20260905144540 30 124 0.0 1.6 0.00 0.00 0.00 73 1010.5
20260905143024 28 128 0.0 1.6 0.00 0.00 0.00 77 1010.5
20260905141528 28 121 0.0 1.6 0.00 0.00 0.00 80 1010.4
20260905140013 27 86 0.0 1.6 0.00 0.00 0.00 81 1010.4
20260905134516 27 170 0.0 0.0 0.00 0.00 0.00 84 1010.4
20260905133009 26 132 0.0 1.6 0.00 0.00 0.00 85 1010.5
20260905131507 26 229 0.0 3.2 0.00 0.00 0.00 87 1010.4
20260905130005 25 109 0.0 3.2 0.00 0.00 0.00 90 1010.4
20260905124505 24 150 0.0 0.0 0.00 0.00 0.00 91 1010.5
20260905123004 23 217 0.0 1.6 0.00 0.00 0.00 92 1010.6
20260905121504 23 141 0.0 0.0 0.00 0.00 0.00 94 1010.6
20260905120003 22 244 0.0 0.0 0.00 0.00 0.00 94 1010.5